CW8428 Weather Reports


Display with metric or nautical units.
time (UTC)temp
F
wind
direction
speed
MPH
gust
MPH
rain 1hr
in
rain 24hr
in
rain mn
in
humidity
%
barometer
mb
20260903135629 46 238 0.0 3.0 0.00 0.00 0.00 80 1016.7
20260903134620 46 238 0.0 2.0 0.00 0.00 0.00 80 1016.6
20260903133651 46 238 1.0 3.0 0.00 0.00 0.00 80 1016.4
20260903132625 45 238 0.0 1.0 0.00 0.00 0.00 80 1016.2
20260903131617 46 238 2.0 4.0 0.00 0.00 0.00 79 1016.2
20260903130627 46 238 1.0 2.0 0.00 0.00 0.00 80 1016.1
20260903125630 46 238 0.0 4.0 0.00 0.00 0.00 79 1016.0
20260903124627 47 238 0.0 1.0 0.00 0.00 0.00 79 1015.7
20260903123639 47 238 0.0 2.0 0.00 0.00 0.00 77 1015.8
20260903122628 48 238 0.0 2.0 0.00 0.00 0.00 76 1015.7
20260903121618 48 238 0.0 2.0 0.00 0.00 0.00 75 1015.6
20260903120613 48 238 0.0 2.0 0.00 0.00 0.00 73 1015.6
20260903115615 48 238 0.0 2.0 0.00 0.00 0.00 73 1015.6
20260903114626 48 238 0.0 2.0 0.00 0.00 0.00 73 1015.4
20260903113617 49 238 1.0 2.0 0.00 0.00 0.00 74 1015.3
20260903112613 49 238 0.0 2.0 0.00 0.00 0.00 74 1015.4
20260903111625 49 238 0.0 3.0 0.00 0.00 0.00 73 1015.4
20260903110615 50 237 2.0 4.0 0.00 0.00 0.00 71 1015.3
20260903105625 51 237 0.0 8.0 0.00 0.00 0.00 69 1015.1
20260903104638 51 5 2.0 5.0 0.00 0.00 0.00 68 1015.0
20260903103627 52 271 1.0 3.0 0.00 0.00 0.00 70 1015.2
20260903102616 52 271 1.0 2.0 0.00 0.00 0.00 69 1015.0
20260903101625 52 271 0.0 1.0 0.00 0.00 0.00 70 1014.9
20260903100618 53 271 2.0 6.0 0.00 0.00 0.00 70 1015.0
20260903095620 54 259 3.0 8.0 0.00 0.00 0.00 65 1014.8
20260903094629 56 200 2.0 10.0 0.00 0.00 0.00 59 1014.5
20260903093619 56 159 3.0 5.0 0.00 0.00 0.00 60 1014.5
20260903092614 56 159 1.0 5.0 0.00 0.00 0.00 59 1014.6
20260903091624 56 159 0.0 2.0 0.00 0.00 0.00 58 1014.7
20260903090614 57 159 2.0 5.0 0.00 0.00 0.00 56 1014.8
20260903085620 57 158 0.0 3.0 0.00 0.00 0.00 54 1014.6
20260903084629 57 158 3.0 6.0 0.00 0.00 0.00 54 1014.7
20260903083620 57 158 5.0 7.0 0.00 0.00 0.00 55 1014.8
20260903082631 56 198 2.0 3.0 0.00 0.00 0.00 60 1014.8
20260903081646 56 198 1.0 1.0 0.00 0.00 0.00 61 1014.8
20260903080614 55 198 2.0 3.0 0.00 0.00 0.00 62 1014.9
20260903075616 55 198 0.0 3.0 0.00 0.00 0.00 64 1014.8
20260903074627 56 198 0.0 2.0 0.00 0.00 0.00 65 1014.8
20260903073621 55 198 1.0 2.0 0.00 0.00 0.00 63 1014.7
20260903072650 55 198 1.0 2.0 0.00 0.00 0.00 65 1014.5
20260903071618 54 198 0.0 1.0 0.00 0.00 0.00 67 1014.6
20260903070629 54 198 0.0 2.0 0.00 0.00 0.00 66 1014.5
20260903065617 53 198 1.0 2.0 0.00 0.00 0.00 65 1014.5
20260903064628 54 198 0.0 4.0 0.00 0.00 0.00 67 1014.5
20260903063619 55 175 2.0 4.0 0.00 0.00 0.00 65 1014.5
20260903062651 57 155 1.0 5.0 0.00 0.00 0.00 60 1014.3
20260903061625 57 153 2.0 3.0 0.00 0.00 0.00 52 1014.1
20260903060622 57 153 0.0 2.0 0.00 0.00 0.00 53 1014.0
20260903055626 57 153 0.0 3.0 0.00 0.00 0.00 54 1014.0
20260903054616 57 153 0.0 2.0 0.00 0.00 0.00 52 1014.0
20260903053645 57 153 0.0 3.0 0.00 0.00 0.00 52 1014.0
20260903052617 58 153 0.0 3.0 0.00 0.00 0.00 52 1014.0
20260903051628 58 153 1.0 6.0 0.00 0.00 0.00 52 1014.0
20260903050618 59 148 0.0 3.0 0.00 0.00 0.00 48 1013.9
20260903045619 58 148 0.0 3.0 0.00 0.00 0.00 53 1014.0
20260903044613 59 148 1.0 3.0 0.00 0.00 0.00 56 1014.1
20260903043625 60 148 1.0 5.0 0.00 0.00 0.00 47 1013.9
20260903042637 60 149 2.0 3.0 0.00 0.00 0.00 54 1013.9
20260903041626 61 149 1.0 3.0 0.00 0.00 0.00 48 1013.8
20260903040618 60 149 0.0 2.0 0.00 0.00 0.00 51 1013.7
20260903035621 61 149 0.0 2.0 0.00 0.00 0.00 51 1013.6
20260903034612 63 149 1.0 3.0 0.00 0.00 0.00 50 1013.4
20260903033641 64 148 0.0 3.0 0.00 0.00 0.00 44 1013.2
20260903032613 63 148 2.0 3.0 0.00 0.00 0.00 42 1013.1
20260903031646 63 171 0.0 3.0 0.00 0.00 0.00 42 1013.2
20260903030614 63 171 1.0 5.0 0.00 0.00 0.00 46 1012.9
20260903025636 66 121 1.0 2.0 0.00 0.00 0.00 38 1012.8
20260903024624 67 121 0.0 3.0 0.00 0.00 0.00 37 1012.7
20260903023638 67 121 0.0 3.0 0.00 0.00 0.00 36 1012.8
20260903022626 68 121 1.0 2.0 0.00 0.00 0.00 36 1012.7
20260903021616 68 121 0.0 6.0 0.00 0.00 0.00 35 1012.6
20260903020626 67 165 3.0 6.0 0.00 0.00 0.00 38 1012.5
20260903015631 68 223 3.0 6.0 0.00 0.00 0.00 38 1012.5
20260903014623 68 250 2.0 5.0 0.00 0.00 0.00 40 1012.5
20260903013614 70 267 3.0 7.0 0.00 0.00 0.00 38 1012.5
20260903012630 72 267 7.0 11.0 0.00 0.00 0.00 34 1012.7
20260903011621 74 265 6.0 10.0 0.00 0.00 0.00 29 1012.6
20260903010612 75 292 8.0 9.0 0.00 0.00 0.00 28 1012.5
20260903005614 77 249 3.0 6.0 0.00 0.00 0.00 30 1012.6
20260903004628 77 300 3.0 6.0 0.00 0.00 0.00 25 1012.6
20260903003618 76 312 4.0 11.0 0.00 0.00 0.00 25 1012.7
20260903002629 75 273 5.0 9.0 0.00 0.00 0.00 29 1012.7
20260903001619 76 286 6.0 10.0 0.00 0.00 0.00 28 1012.7
20260903000614 77 272 4.0 10.0 0.00 0.00 0.00 28 1012.8
20260902235615 78 320 5.0 11.0 0.00 0.00 0.00 24 1012.9
20260902234628 79 259 2.0 8.0 0.00 0.00 0.00 22 1012.8
20260902233618 80 225 5.0 10.0 0.00 0.00 0.00 20 1013.0
20260902232631 80 188 8.0 20.0 0.00 0.00 0.00 17 1013.1
20260902231622 80 187 11.0 20.0 0.00 0.00 0.00 18 1013.1
20260902230613 81 147 9.0 15.0 0.00 0.00 0.00 18 1012.9
20260902225635 81 199 8.0 12.0 0.00 0.00 0.00 19 1013.0
20260902224628 81 250 7.0 14.0 0.00 0.00 0.00 22 1012.9
20260902223614 81 243 4.0 19.0 0.00 0.00 0.00 22 1013.1
20260902222624 81 130 13.0 18.0 0.00 0.00 0.00 18 1013.1
20260902221635 81 223 8.0 14.0 0.00 0.00 0.00 20 1013.1
20260902220628 80 252 4.0 12.0 0.00 0.00 0.00 22 1013.3
20260902215652 79 257 5.0 12.0 0.00 0.00 0.00 26 1013.4
20260902214621 78 266 3.0 10.0 0.00 0.00 0.00 25 1013.4
20260902213631 79 254 7.0 12.0 0.00 0.00 0.00 25 1013.4
20260902212624 80 219 8.0 16.0 0.00 0.00 0.00 23 1013.7
20260902211613 79 219 6.0 11.0 0.00 0.00 0.00 25 1013.8
20260902210622 79 203 7.0 14.0 0.00 0.00 0.00 24 1013.8
20260902205626 81 192 10.0 37.0 0.00 0.00 0.00 24 1013.9
20260902204619 81 197 11.0 19.0 0.00 0.00 0.00 21 1013.9
20260902203629 81 185 8.0 23.0 0.00 0.00 0.00 22 1013.9
20260902202620 80 223 12.0 21.0 0.00 0.00 0.00 24 1014.1
20260902201613 80 205 15.0 26.0 0.00 0.00 0.00 23 1014.3
20260902200623 80 170 11.0 23.0 0.00 0.00 0.00 25 1014.3
20260902195626 80 193 8.0 23.0 0.00 0.00 0.00 28 1014.3
20260902194618 80 115 10.0 16.0 0.00 0.00 0.00 28 1014.4
20260902193612 79 181 5.0 12.0 0.00 0.00 0.00 28 1014.7
20260902192641 78 173 8.0 18.0 0.00 0.00 0.00 28 1014.8
20260902191630 79 150 15.0 22.0 0.00 0.00 0.00 27 1015.0
20260902190621 79 178 15.0 22.0 0.00 0.00 0.00 27 1015.1
20260902185627 78 136 9.0 22.0 0.00 0.00 0.00 30 1015.1
20260902184622 78 150 9.0 19.0 0.00 0.00 0.00 31 1015.3
20260902183612 77 182 13.0 20.0 0.00 0.00 0.00 32 1015.2
20260902182623 78 184 9.0 19.0 0.00 0.00 0.00 32 1015.3
20260902181639 78 153 9.0 17.0 0.00 0.00 0.00 32 1015.5
20260902180617 77 170 6.0 17.0 0.00 0.00 0.00 30 1015.5
20260902175619 77 165 11.0 25.0 0.00 0.00 0.00 32 1015.6
20260902174630 77 159 14.0 24.0 0.00 0.00 0.00 30 1015.7
20260902173621 77 128 15.0 22.0 0.00 0.00 0.00 32 1015.8
20260902172616 75 173 6.0 17.0 0.00 0.00 0.00 35 1015.9
20260902171627 76 177 13.0 19.0 0.00 0.00 0.00 34 1016.0
20260902170618 76 184 9.0 22.0 0.00 0.00 0.00 34 1016.0
20260902165642 76 132 12.0 27.0 0.00 0.00 0.00 34 1016.1
20260902164615 75 166 14.0 26.0 0.00 0.00 0.00 33 1016.1
20260902163624 75 136 12.0 20.0 0.00 0.00 0.00 34 1016.0
20260902162634 75 126 15.0 26.0 0.00 0.00 0.00 33 1016.1
20260902161638 74 134 14.0 29.0 0.00 0.00 0.00 33 1016.2
20260902160630 74 171 8.0 18.0 0.00 0.00 0.00 35 1016.2
20260902155613 73 167 14.0 24.0 0.00 0.00 0.00 35 1016.1
20260902154622 73 138 16.0 29.0 0.00 0.00 0.00 35 1016.2
20260902153614 74 121 19.0 29.0 0.00 0.00 0.00 34 1016.0
20260902152627 74 155 9.0 27.0 0.00 0.00 0.00 34 1016.2
20260902151629 74 150 6.0 17.0 0.00 0.00 0.00 36 1016.1
20260902150640 74 164 15.0 26.0 0.00 0.00 0.00 36 1015.9
20260902145620 73 115 8.0 14.0 0.00 0.00 0.00 36 1015.8
20260902144613 73 171 6.0 9.0 0.00 0.00 0.00 37 1015.7
20260902143623 72 202 2.0 8.0 0.00 0.00 0.00 38 1015.7
20260902142631 71 100 6.0 11.0 0.00 0.00 0.00 39 1015.5
20260902141616 69 148 4.0 8.0 0.00 0.00 0.00 44 1015.4
20260902140644 68 118 3.0 4.0 0.00 0.00 0.00 50 1015.5